Theta_e
307 308 309 310 310 311 313 315 317 319 319 320 320 320 321 319 320 321 320 319 319 319 318 318 318 317 317 316 317 317 316 316 317 317 316 316 317 317 316 316 315 316 315 315 316 316 315 315 315 316 316 315 315 315 315 315 314 314 314 314 313 313 312 310 307 307 311 314 313 314 312 306 305 306 307 307 306 304 302 305 304 304 304 304 304
306 307 308 309 309 310 311 313 315 317 317 318 318 319 320 320 320 319 319 320 319 319 318 318 318 318 317 317 316 317 317 317 316 316 316 316 316 316 316 315 315 315 315 315 316 316 316 315 315 316 316 315 315 315 315 315 315 314 313 313 313 313 313 311 309 308 307 311 312 310 312 307 310 306 308 307 308 305 304 305 304 304 305 305 304
306 306 306 307 308 309 309 310 312 313 314 316 316 318 318 319 319 319 319 319 318 319 319 318 318 317 317 317 317 316 316 316 316 316 316 315 315 315 316 315 315 314 315 315 315 316 315 315 315 316 316 315 314 315 315 315 315 314 313 313 312 313 313 313 311 308 307 309 312 311 310 306 308 309 306 309 311 310 308 308 308 306 304 304 304
304 304 305 305 306 306 307 308 308 310 311 313 314 315 317 317 317 317 318 318 318 317 318 318 317 317 316 316 316 316 316 316 315 315 316 315 315 315 315 315 315 315 315 315 315 315 315 314 314 315 315 314 314 314 314 314 314 313 312 312 312 312 312 312 312 311 310 308 310 311 310 310 308 307 308 308 308 307 308 309 308 307 306 304 303
300 301 300 302 301 302 303 303 304 306 308 310 311 312 311 311 310 314 315 315 316 315 314 315 316 316 316 315 315 315 315 315 315 315 315 315 315 315 315 314 314 314 314 315 309 315 314 314 314 314 314 313 313 313 313 312 313 312 312 312 312 312 312 312 312 311 310 309 309 311 311 309 310 306 305 306 303 302 300 303 305 306 306 305 302
294 295 295 296 298 296 297 296 300 303 304 305 306 305 305 305 309 310 311 315 314 314 314 312 313 315 315 315 315 315 315 314 314 315 315 314 314 314 314 313 313 313 313 314 314 314 314 314 314 314 314 313 313 313 313 312 312 311 311 311 312 312 311 311 311 310 310 310 310 310 309 310 304 303 302 305 305 302 298 301 297 299 300 299 300
289 289 290 290 292 292 292 293 294 295 296 298 298 299 301 302 303 307 305 309 311 311 310 311 310 312 314 314 314 314 314 313 314 314 314 314 314 313 313 313 312 313 313 313 314 314 314 314 314 314 314 314 313 313 312 312 312 311 311 311 311 311 311 311 310 310 310 309 309 310 310 310 310 309 304 303 305 306 306 303 299 298 296 299 301
287 287 288 289 290 291 290 289 290 291 292 292 294 295 296 297 300 301 299 305 307 308 309 310 309 308 311 312 313 313 312 312 312 313 313 313 312 312 312 311 312 312 312 313 313 313 313 314 314 314 314 314 314 313 313 312 312 311 312 311 311 311 311 310 310 309 309 309 308 308 308 308 305 302 292 293 295 295 295 299 302 301 299 297 299
286 286 286 287 288 288 286 286 288 288 288 289 290 292 294 294 295 298 298 302 304 305 307 308 307 307 307 308 309 309 310 311 311 310 311 311 312 312 313 312 312 312 312 312 313 313 313 313 313 314 311 304 303 305 306 307 313 311 311 311 310 310 310 310 309 309 308 308 307 307 306 305 306 304 300 297 298 304 300 297 299 299 301 299 298
286 286 286 287 286 286 285 285 286 286 287 288 289 289 290 291 292 294 297 298 300 300 301 303 305 306 306 305 305 307 308 310 304 303 304 310 312 313 313 312 312 311 311 311 311 312 312 313 312 302 300 299 299 299 300 300 302 310 313 312 310 310 309 308 308 308 308 306 307 307 306 306 306 305 305 305 303 297 296 293 297 297 295 298 298
286 286 287 286 285 285 285 286 286 286 287 286 286 287 289 290 290 291 293 295 296 297 298 301 301 301 303 304 304 304 306 307 301 302 302 303 309 313 313 313 312 311 311 310 310 310 311 312 312 305 300 298 299 298 299 300 299 299 301 303 304 311 310 308 308 308 306 306 307 306 306 306 307 305 304 305 301 299 299 297 299 297 297 297 298
286 285 285 284 284 285 285 285 286 288 288 289 289 289 290 290 292 293 294 294 295 293 296 299 301 299 300 300 301 302 302 299 301 302 302 302 301 309 313 313 312 312 311 310 310 310 310 310 311 311 311 309 309 306 300 298 298 299 299 299 300 300 302 308 306 305 306 305 305 306 306 306 307 305 304 297 298 296 296 297 298 298 297 296 297
285 286 286 285 285 284 284 285 287 287 288 289 290 290 290 292 292 293 294 294 293 296 299 299 300 299 299 301 301 301 301 299 298 299 299 300 300 301 310 312 312 311 310 310 310 310 310 309 309 310 312 299 301 308 309 306 297 296 297 297 297 298 300 301 302 307 311 308 307 306 307 306 304 303 301 299 301 300 298 297 296 296 298 298 299
284 284 284 284 284 284 284 284 284 286 287 288 288 289 290 292 292 292 292 292 294 296 295 296 297 297 298 299 299 299 299 297 297 297 297 298 299 299 306 309 310 310 310 310 309 309 309 309 309 308 309 308 308 309 310 310 309 304 302 301 303 300 296 297 298 297 299 307 309 308 308 306 306 305 302 301 301 299 298 299 297 297 297 298 301
283 283 283 283 283 283 284 284 285 285 284 286 288 289 289 290 290 291 291 294 295 296 296 295 297 297 297 298 299 299 301 296 296 297 297 297 298 298 304 306 306 307 308 308 308 308 308 309 308 308 306 306 306 305 307 308 308 308 307 305 305 305 305 305 303 303 303 304 306 308 310 309 309 307 306 304 305 306 305 303 301 300 299 298 296
282 282 283 283 283 283 283 283 284 284 284 285 286 287 288 288 290 289 289 290 291 291 292 293 295 295 295 295 295 296 295 294 294 295 295 297 296 298 299 300 301 300 301 302 302 302 301 301 301 300 300 301 299 298 299 303 305 302 300 301 302 302 303 301 301 301 303 307 307 307 308 308 305 306 304 306 304 304 299 298 296 295 297 299 299
281 282 282 283 283 283 283 283 284 284 284 284 284 285 286 287 287 287 289 288 289 289 290 290 290 291 290 292 293 294 292 290 292 293 293 295 294 294 295 296 296 296 297 298 299 298 299 297 298 298 299 299 296 297 297 295 299 298 299 299 301 301 299 300 298 298 298 298 299 299 300 300 300 300 300 300 298 298 298 298 297 295 297 297 297
282 282 283 282 283 283 282 283 283 283 283 284 283 283 283 284 285 286 288 288 288 288 289 289 289 289 289 289 289 290 291 289 290 291 292 293 292 293 293 294 294 294 294 296 296 296 294 290 292 295 296 297 295 295 296 295 296 296 296 294 293 294 295 294 296 298 295 294 295 295 296 297 298 298 299 299 299 297 297 298 295 295 297 297 297
282 282 283 282 283 282 282 282 282 283 283 283 283 283 283 283 283 285 287 287 287 287 287 287 287 287 287 287 286 288 288 287 289 290 291 292 291 291 291 291 292 292 293 292 292 293 293 292 290 292 293 293 294 295 295 294 295 294 295 294 294 294 296 294 296 295 294 294 295 294 294 293 294 295 295 295 296 295 298 299 296 296 297 297 296
282 282 281 281 282 282 282 282 282 282 282 282 283 283 283 284 284 284 285 286 285 285 286 286 286 286 285 285 286 287 287 287 287 289 289 290 291 289 289 290 289 289 289 290 290 291 291 291 290 293 294 294 294 294 294 294 294 294 293 293 293 293 293 291 290 291 291 291 292 292 292 291 291 291 291 292 292 292 294 296 297 298 296 296 296
282 282 282 282 282 282 282 282 282 282 281 282 283 283 283 283 283 283 283 282 282 282 282 283 284 283 282 282 283 284 285 285 285 287 288 289 290 290 289 289 289 289 289 289 289 290 290 290 290 291 293 293 293 293 293 293 292 292 292 291 291 291 291 290 289 289 291 290 290 291 292 292 293 293 293 292 293 293 293 293 294 296 297 296 296
281 281 281 282 282 282 282 282 281 281 280 281 282 283 282 283 283 282 281 282 283 283 282 282 283 283 282 282 283 284 284 284 283 285 288 289 290 291 288 287 289 289 288 288 289 289 290 290 290 290 291 292 292 292 293 293 292 289 290 292 292 292 289 289 289 290 290 291 291 292 292 292 293 293 292 292 292 292 292 293 293 294 296 297 296
283 282 282 282 282 283 283 283 283 283 283 283 284 284 283 284 284 285 285 285 285 285 285 285 285 285 285 285 286 286 286 285 285 285 287 288 290 290 290 288 290 289 288 287 288 289 289 289 289 288 289 289 290 291 292 292 290 290 291 292 291 291 289 288 289 289 290 290 290 290 291 291 292 291 292 292 292 291 292 292 292 292 292 293 294
284 283 283 284 284 284 284 285 285 284 284 285 286 286 285 285 286 286 286 286 286 286 286 286 286 286 286 286 286 286 286 286 286 286 286 287 289 290 290 290 291 287 287 287 288 288 288 288 288 289 289 289 290 290 290 290 288 290 291 291 290 288 287 288 288 288 288 289 289 289 290 290 291 291 291 291 291 291 292 291 291 291 291 291 291
285 285 285 285 285 285 285 284 284 285 285 286 285 285 285 286 286 286 286 286 285 284 284 284 285 285 285 285 285 286 286 286 286 286 286 286 288 289 288 288 288 289 287 287 287 287 287 288 288 288 288 288 288 288 288 288 289 289 289 289 287 287 287 287 288 288 288 288 289 289 289 289 290 291 290 290 289 289 288 289 289 289 289 289 288
284 284 284 285 285 285 285 285 285 285 285 285 285 285 285 285 285 285 285 285 285 284 284 284 284 284 284 285 285 285 285 285 286 286 285 285 285 286 287 286 285 285 285 285 285 286 287 287 287 286 286 286 286 286 286 286 286 286 286 286 286 286 287 287 287 287 287 288 288 288 289 289 289 289 288 288 289 290 289 290 290 290 288 288 288
284 284 284 284 284 284 284 284 284 285 285 285 285 285 285 285 285 285 285 285 285 285 285 285 285 285 285 285 285 285 285 285 285 285 285 285 285 285 285 285 285 285 285 285 285 285 285 285 286 286 286 286 286 286 285 286 285 286 286 286 287 287 287 287 287 287 287 287 287 288 288 288 289 288 289 289 289 289 289 289 289 289 289 288 287
284 283 283 283 283 283 283 283 283 284 284 284 284 285 285 285 285 284 284 284 284 284 285 284 284 284 284 284 285 285 285 285 285 285 285 285 285 285 285 286 286 285 285 286 286 286 286 285 286 286 286 286 286 286 286 286 286 286 286 286 286 287 286 286 286 287 287 287 287 288 288 288 288 288 288 288 288 288 288 288 288 288 288 287 286
283 283 283 283 282 283 282 282 283 283 283 283 284 284 284 284 285 285 285 285 285 285 285 284 284 284 284 284 284 283 284 284 284 285 285 286 285 285 285 285 285 286 286 288 286 286 286 286 286 286 286 286 286 286 286 286 286 286 286 286 286 286 286 286 286 287 287 287 287 287 287 287 287 288 287 288 288 288 287 287 287 287 287 287 286
282 282 282 281 282 281 281 281 282 282 282 282 282 283 284 285 284 284 284 285 285 285 285 284 284 284 284 284 285 284 283 284 286 286 286 285 286 286 286 286 287 286 287 288 286 285 285 285 285 285 285 285 285 286 286 286 286 286 286 286 286 286 286 286 286 286 287 286 287 287 287 287 287 287 287 287 287 287 287 287 287 287 287 287 286
281 281 281 281 281 281 281 281 281 281 281 281 282 281 282 284 284 284 284 284 284 285 285 285 285 285 284 283 284 285 285 285 285 285 284 285 285 285 286 287 287 287 288 286 285 285 285 285 285 285 285 285 285 285 285 285 285 285 286 286 286 286 286 286 286 286 286 286 286 287 287 287 287 287 287 287 287 287 287 286 287 287 287 286 286
279 279 279 279 279 279 280 280 280 280 280 281 281 281 280 281 282 283 283 284 284 284 284 284 284 284 284 284 284 283 284 284 284 284 283 284 284 285 286 287 287 288 289 289 285 285 284 284 284 284 285 284 285 285 285 285 285 285 285 285 286 286 286 286 286 286 286 286 286 286 286 286 287 287 287 287 287 287 287 286 286 285 285 286 286
276 276 276 277 277 278 277 277 277 278 278 278 279 279 279 279 278 279 281 283 283 283 283 283 282 283 283 283 283 282 282 282 282 283 283 284 284 284 285 286 287 288 288 285 284 284 284 284 284 284 284 284 284 284 284 285 285 285 285 285 285 286 286 286 286 286 286 286 286 286 287 287 287 286 286 286 286 286 286 286 286 285 285 285 285
274 274 274 275 275 275 275 275 276 276 277 277 277 277 277 278 278 278 277 278 279 281 282 281 281 281 282 282 281 281 281 281 281 282 282 282 283 283 284 284 285 286 285 283 283 282 283 283 283 283 283 284 284 284 284 284 285 285 285 285 285 286 286 286 286 286 286 286 286 286 286 287 286 286 286 286 287 287 286 286 286 284 284 284 284
272 272 273 273 273 274 274 274 274 274 275 275 275 275 275 276 277 276 276 276 276 276 277 277 279 280 279 279 280 280 280 280 281 281 281 281 282 282 282 281 280 280 281 281 282 281 281 282 282 282 283 282 283 283 283 283 283 284 284 284 285 285 285 285 285 286 286 286 286 286 286 286 286 286 286 286 286 286 286 286 286 285 284 284 284
269 270 270 271 271 272 272 272 272 273 273 273 274 274 274 274 275 275 275 275 275 275 275 275 276 277 278 278 278 279 279 279 280 280 280 280 281 281 277 277 278 278 279 280 280 281 281 281 282 282 282 283 283 283 283 283 283 284 284 284 284 284 284 285 285 285 285 285 285 286 286 286 286 286 286 286 286 286 286 286 286 286 285 285 285
267 267 268 269 270 271 271 271 271 271 272 272 272 272 272 273 273 273 274 274 273 273 273 274 275 274 276 276 277 277 278 278 279 279 279 279 280 278 277 277 277 277 277 278 278 279 279 279 280 281 281 281 281 281 281 281 281 282 282 283 283 283 283 283 283 284 284 285 285 285 286 286 286 286 286 285 286 286 286 286 286 286 285 285 284
266 266 267 268 270 271 270 269 269 270 270 270 270 270 271 271 272 273 272 272 272 272 273 273 273 273 273 274 276 275 275 276 277 277 278 278 277 276 276 276 276 276 276 277 278 278 278 279 280 279 280 280 280 280 280 280 281 281 282 282 282 282 282 282 282 283 284 284 285 285 285 285 286 286 286 285 285 285 286 286 286 286 285 285 284
265 266 268 269 269 268 268 268 268 268 268 268 268 270 270 271 271 271 271 271 271 272 272 272 272 272 273 274 273 274 273 273 273 273 274 275 275 275 275 275 276 275 276 276 276 276 276 277 278 279 279 279 279 280 280 280 281 281 282 281 281 281 281 282 282 282 282 282 283 284 284 284 285 285 286 285 285 285 285 286 286 286 285 285 285
264 265 267 267 267 267 267 267 267 267 268 268 268 269 270 270 270 270 270 271 271 271 271 272 272 272 273 272 272 272 271 271 272 272 272 273 273 274 275 273 273 272 273 273 274 274 275 276 277 276 275 275 275 276 276 277 278 279 279 279 279 280 281 282 281 281 281 282 282 282 283 284 285 285 285 285 285 285 285 285 285 286 286 285 285
263 264 265 265 265 265 265 266 266 266 267 268 268 268 269 269 269 270 270 270 271 271 271 271 270 271 272 272 272 272 271 271 271 271 272 272 273 273 272 272 272 272 272 271 272 272 272 272 272 272 273 273 274 274 275 276 277 278 278 279 280 280 281 281 282 282 282 282 283 283 283 283 282 282 281 283 285 285 285 285 285 285 285 285 285
262 263 262 263 264 264 264 265 265 266 266 267 267 268 268 268 268 268 269 269 269 270 269 269 270 270 271 271 271 272 271 270 271 271 271 271 271 270 270 269 268 268 267 268 268 269 269 269 270 271 272 273 274 274 275 274 275 275 275 275 276 276 277 277 279 280 280 281 282 282 282 281 281 281 281 282 282 283 284 285 285 285 285 285 285
261 261 261 262 262 263 264 264 265 265 265 266 267 268 268 268 267 268 268 269 269 269 269 268 268 268 269 269 269 269 268 268 269 268 268 268 267 267 267 266 266 266 266 267 268 267 267 268 269 270 270 270 270 270 270 271 272 272 273 273 274 275 276 277 277 278 279 279 279 280 280 280 280 281 281 282 282 283 283 283 284 285 285 285 285
259 260 261 261 262 263 264 264 264 265 265 266 266 267 267 267 267 267 267 267 268 267 266 266 266 266 266 266 266 266 265 266 266 266 266 266 265 265 265 265 264 264 265 265 265 266 267 267 267 267 268 268 268 269 269 270 271 271 271 271 271 271 272 272 273 273 274 275 276 277 277 278 278 278 279 280 280 281 281 282 282 282 283 283 284
258 259 259 259 261 261 262 263 264 264 265 265 264 265 266 265 265 266 266 265 266 265 265 265 265 264 264 264 264 264 264 264 265 265 264 264 264 264 264 263 263 263 263 263 264 265 265 265 265 265 265 266 267 267 267 268 268 268 268 268 268 268 269 269 271 272 273 272 272 272 273 274 275 276 277 278 279 278 278 279 280 280 282 283 283
258 258 259 259 260 261 261 262 263 262 262 263 263 263 264 264 264 264 265 265 265 264 263 263 263 263 263 263 263 263 263 263 263 264 264 263 263 262 262 262 262 262 262 262 263 263 264 264 264 264 264 264 265 265 266 266 266 267 267 268 268 268 268 269 270 269 269 269 269 269 270 271 271 273 273 273 274 275 276 277 278 279 280 280 281
256 257 258 259 260 260 261 262 262 261 261 262 262 262 263 262 263 263 263 263 263 263 262 261 260 260 261 261 262 262 263 262 262 262 262 262 261 261 260 261 261 261 260 261 261 262 262 263 263 263 263 263 264 264 265 265 266 266 267 267 267 268 268 269 269 269 269 269 269 269 268 269 269 270 271 271 272 273 274 276 277 277 278 279 280
257 257 258 259 259 259 259 259 259 260 258 259 259 261 261 261 260 261 260 261 261 261 261 260 259 259 260 260 262 261 262 261 261 261 261 261 260 260 260 260 260 260 260 260 260 261 261 261 261 262 262 263 263 264 264 265 265 266 266 267 267 268 268 268 268 268 268 269 268 268 268 268 268 269 270 270 271 272 273 274 275 277 278 279 280
257 257 258 259 258 257 257 257 258 256 256 256 257 258 259 257 257 257 258 258 257 258 257 256 256 256 257 259 260 260 260 261 260 260 260 260 260 259 259 259 259 259 259 258 258 258 258 259 260 261 262 262 263 263 264 264 265 265 266 267 268 268 268 268 268 268 268 268 268 269 269 269 269 269 270 270 271 272 272 274 276 277 278 279 279
257 257 257 257 257 256 256 256 255 254 256 255 255 255 256 255 254 256 256 256 255 256 256 256 255 254 255 257 258 258 259 258 258 258 258 258 258 257 257 257 257 257 257 257 257 257 257 258 259 260 261 262 263 263 264 264 265 265 266 268 268 267 267 267 267 267 267 267 267 267 268 268 268 269 270 270 271 271 271 272 273 275 276 277 277
256 256 256 255 255 255 254 254 254 253 253 254 253 253 254 253 253 253 254 253 253 254 255 253 253 254 254 254 257 257 258 257 257 256 256 256 256 256 256 256 256 256 256 256 256 257 258 258 259 260 261 262 263 264 264 264 265 266 268 267 266 266 266 266 266 266 266 266 266 266 267 267 268 269 270 270 271 271 272 272 273 274 275 276 277
Wind_Speed
9 11 11 11 12 13 13 10 13 12 13 14 14 14 14 13 13 13 10 11 11 11 11 12 12 12 12 12 13 12 12 12 11 11 12 13 12 13 12 12 14 13 13 14 12 12 13 13 13 13 11 11 10 10 10 11 11 11 11 11 12 11 12 12 14 15 11 10 9 10 7 6 5 7 8 6 6 5 6 7 5 5 6 7 8
8 10 9 10 10 11 11 10 11 11 12 12 14 14 13 13 13 11 12 12 10 13 12 12 11 12 12 13 13 13 12 13 12 11 12 13 14 12 12 13 13 14 13 14 13 11 11 13 13 13 12 13 11 11 11 11 11 11 11 12 12 12 12 12 13 12 15 9 10 5 8 6 9 6 9 8 8 6 7 7 6 6 6 7 7
8 8 8 8 10 10 9 10 9 10 12 12 12 14 13 13 11 11 12 11 10 11 12 12 12 12 12 12 12 12 13 13 12 12 13 14 15 14 13 13 14 14 14 15 13 12 12 13 13 12 10 11 12 12 12 12 11 13 13 11 12 12 12 13 12 13 13 12 9 11 7 5 9 8 7 8 10 9 8 8 8 6 7 7 7
8 7 7 9 8 7 8 7 7 9 10 11 11 12 12 11 9 11 11 9 11 10 10 11 10 11 12 12 12 12 12 12 12 12 13 14 14 15 13 13 13 14 14 14 13 12 13 12 13 12 11 12 11 11 11 11 11 11 12 11 12 13 12 12 13 12 11 12 8 11 7 8 8 7 7 7 8 7 7 8 6 5 5 6 7
7 7 6 8 7 7 7 6 6 8 9 9 10 10 7 7 6 9 9 9 10 7 8 8 10 11 12 12 13 13 13 12 13 12 12 12 14 13 13 13 13 14 14 13 13 12 12 12 12 11 11 13 11 11 10 12 12 10 11 10 11 11 10 11 12 11 12 13 10 8 7 7 8 5 5 7 6 6 4 6 7 7 7 6 4
5 6 5 6 6 6 5 5 6 7 7 7 7 6 6 6 6 7 7 9 8 8 9 9 10 11 12 12 12 12 12 12 12 13 13 12 12 12 12 12 12 12 12 12 12 12 12 12 12 11 12 13 12 11 11 13 11 11 11 10 10 10 11 11 10 11 12 13 11 11 7 10 7 6 5 7 6 7 5 7 4 5 6 5 6
5 5 6 5 5 5 4 3 4 4 5 5 5 5 5 5 6 7 6 8 8 9 9 10 9 10 11 11 12 12 11 11 11 11 11 11 12 12 12 12 11 11 11 12 12 12 12 12 12 12 13 13 13 12 12 12 11 12 12 11 11 11 11 11 10 11 12 12 11 11 10 9 9 10 7 7 8 8 9 8 7 5 6 8 9
5 4 4 6 6 6 4 3 3 4 4 4 4 4 4 5 6 6 5 7 8 8 8 9 8 8 10 10 11 10 10 10 10 10 10 10 10 11 11 12 11 11 11 11 11 12 12 12 12 12 13 13 12 12 12 12 11 12 10 10 11 12 12 11 10 11 11 11 11 10 9 10 8 7 1 2 4 4 5 7 10 7 9 8 10
5 3 3 5 6 4 4 4 3 3 3 3 4 4 4 4 5 5 5 6 7 7 7 7 7 8 8 8 8 7 9 10 9 9 10 10 10 11 12 12 12 12 12 12 11 12 11 11 12 12 13 15 17 15 14 14 11 11 11 11 11 11 11 10 10 10 10 10 10 6 7 7 7 7 7 6 8 12 7 8 9 7 8 8 8
5 3 3 4 4 4 4 3 3 3 3 4 4 3 3 4 4 4 5 5 5 5 6 6 7 8 8 8 7 7 8 8 10 15 13 10 10 10 10 11 11 11 11 11 11 11 11 11 12 17 18 18 19 19 18 17 17 14 11 10 12 11 11 10 10 10 11 12 12 11 12 11 10 9 10 11 9 5 3 5 8 7 6 9 8
5 4 4 4 3 3 3 3 3 4 4 3 3 2 2 2 3 4 4 5 5 5 6 7 7 6 7 7 7 8 7 7 12 13 14 16 12 10 11 11 11 11 11 11 11 10 10 11 11 13 15 16 16 20 20 20 19 18 19 17 15 13 12 12 12 12 12 12 11 11 12 12 11 9 9 9 8 9 9 6 9 5 7 8 11
5 5 4 3 2 2 2 2 2 3 2 4 4 3 2 2 2 3 3 4 5 4 5 6 6 5 5 6 6 7 7 10 13 14 15 16 15 11 10 9 9 10 10 10 10 10 10 10 10 10 10 12 11 13 16 20 21 21 20 20 20 18 15 12 10 10 10 10 10 11 11 12 11 8 9 6 6 5 7 8 9 9 10 9 8
3 3 3 1 1 1 2 2 2 2 3 3 3 3 3 3 3 2 3 3 2 3 5 5 5 4 4 5 6 6 6 7 10 11 12 12 14 12 9 9 9 9 9 10 10 10 9 10 10 9 9 15 13 10 9 10 15 21 22 21 19 20 20 20 17 13 9 11 11 11 10 9 9 7 6 7 6 9 7 9 7 8 10 11 12
0 1 2 2 2 1 1 1 2 2 3 3 3 3 3 4 3 3 3 2 3 3 3 4 4 4 4 5 5 4 5 7 9 9 10 12 13 12 9 9 9 9 9 9 9 9 10 9 9 9 8 9 9 12 11 11 9 8 10 11 12 15 17 20 22 22 18 14 13 14 9 6 11 6 7 6 7 8 7 11 8 10 10 14 15
0 1 1 2 2 2 2 1 1 2 1 1 2 3 3 2 2 2 2 2 3 3 4 4 5 5 5 5 5 5 5 6 8 9 10 11 12 11 7 7 7 7 7 7 7 8 8 8 7 7 5 6 6 8 8 9 9 9 9 10 11 12 11 11 11 12 13 14 14 15 12 9 10 8 7 7 10 9 9 11 9 10 9 7 6
1 2 2 3 2 2 2 2 3 3 3 2 1 2 3 3 3 3 1 1 1 1 2 2 4 4 3 3 3 3 1 7 6 5 2 4 6 5 5 4 4 4 4 2 1 1 2 3 3 3 3 4 4 7 8 5 5 5 7 6 6 6 7 9 12 12 12 11 11 11 10 10 12 9 7 7 7 7 7 7 4 4 6 10 12
3 3 3 3 3 2 1 1 2 3 3 3 3 1 1 2 2 3 2 3 2 2 3 3 3 3 4 4 1 1 3 7 9 8 8 8 5 1 2 3 3 3 3 2 1 1 1 2 2 2 1 0 1 4 4 1 2 4 6 7 7 6 6 7 11 14 14 15 15 15 14 13 12 12 11 10 6 4 4 5 7 4 7 11 12
3 3 4 4 4 4 2 0 3 3 3 3 2 2 1 0 1 2 2 2 2 4 3 4 3 4 4 4 3 2 3 6 9 8 8 8 6 2 1 0 1 1 1 1 0 0 2 5 4 2 1 0 3 4 4 3 3 3 4 4 5 6 6 4 4 5 8 10 12 13 14 14 16 17 15 14 13 8 6 11 5 5 10 9 12
5 4 3 3 4 3 2 1 2 3 3 3 2 3 3 3 2 2 3 4 4 4 3 4 4 4 4 4 5 4 3 5 7 7 8 7 5 3 3 1 2 2 1 2 2 4 4 4 4 3 2 3 5 4 4 2 3 3 3 4 6 7 6 4 5 5 5 5 6 5 6 7 8 7 8 12 14 12 10 11 5 6 10 10 9
5 4 4 3 2 3 3 3 3 3 3 3 3 3 2 3 3 4 3 4 4 3 4 4 4 4 4 4 4 3 4 4 5 8 7 6 5 3 2 1 2 3 3 3 5 4 4 5 4 5 6 6 5 5 5 4 3 3 3 5 6 8 0 2 3 3 4 4 5 4 5 4 4 4 4 4 5 5 8 9 8 8 9 10 8
3 4 4 3 3 3 3 3 4 4 3 3 4 4 3 4 4 4 5 4 5 5 5 4 4 3 3 2 2 3 2 3 5 7 7 6 5 4 2 1 1 1 2 3 3 4 4 3 3 4 5 5 6 7 7 7 7 4 3 4 4 3 4 3 4 6 6 5 6 5 5 4 5 5 5 5 6 6 7 8 8 8 10 9 9
3 3 3 4 4 4 4 4 3 3 3 3 4 6 4 4 4 4 4 4 6 6 4 4 5 6 4 4 4 5 4 5 4 5 7 7 5 3 1 1 1 0 1 3 4 4 4 4 4 4 5 5 6 7 7 5 6 3 4 6 6 7 4 4 3 3 4 4 4 5 5 5 5 4 4 5 6 6 7 8 8 9 10 10 11
3 3 3 4 4 5 5 6 5 4 5 5 5 7 5 6 5 5 4 5 7 7 7 5 6 6 6 6 6 7 7 7 11 9 11 10 9 8 6 4 5 3 2 3 4 4 3 3 3 4 5 6 5 5 9 11 8 6 8 9 8 8 6 4 3 4 4 5 5 6 5 4 5 4 4 4 5 6 7 7 8 9 8 9 9
5 4 4 4 5 6 6 6 6 6 5 5 6 6 7 6 6 6 5 6 6 7 6 5 6 7 7 7 7 7 7 7 9 13 11 13 11 12 11 10 7 3 3 4 4 5 5 4 4 6 6 7 8 10 11 9 7 10 12 11 8 6 4 4 5 5 5 5 6 6 6 5 5 4 4 5 6 6 8 7 7 7 7 6 7
5 6 6 6 5 5 5 6 6 6 6 5 6 6 6 6 8 6 6 7 7 7 6 6 6 6 6 6 5 5 6 6 7 9 13 14 13 11 10 11 10 9 4 5 4 5 6 9 10 9 9 9 10 10 9 8 10 10 9 9 7 4 4 4 4 4 5 6 6 6 5 5 6 6 6 5 4 3 3 4 5 5 5 5 6
4 5 5 6 6 5 5 5 6 6 6 6 6 5 5 6 7 6 6 6 6 6 5 6 6 6 6 5 5 5 5 6 6 6 7 8 9 12 11 8 6 6 5 6 8 10 10 10 10 9 8 7 5 4 4 4 7 9 9 8 4 4 4 4 4 4 5 5 5 6 5 4 4 5 4 4 3 5 4 4 4 5 4 5 6
4 4 5 4 4 4 5 4 4 5 6 5 6 6 5 5 5 6 5 5 5 5 6 6 5 5 5 4 4 4 4 5 6 5 6 5 5 6 7 8 8 6 4 4 4 4 5 4 4 5 6 8 8 7 6 6 5 4 4 3 3 4 3 3 4 5 5 5 5 5 5 4 4 4 4 4 5 4 5 5 4 5 4 4 4
4 4 3 2 2 3 3 4 5 5 5 6 6 6 5 4 5 6 5 4 4 5 5 6 6 5 4 3 3 3 4 5 7 8 7 6 5 5 4 5 5 5 5 5 5 5 5 5 5 3 3 3 3 2 2 3 3 3 3 3 3 4 4 6 6 4 5 5 6 5 5 4 4 4 4 4 5 4 3 4 4 5 4 3 3
4 5 5 4 3 3 3 4 5 4 4 4 4 5 5 5 4 4 4 3 3 4 5 6 5 4 4 6 6 6 6 7 7 6 6 7 7 7 7 6 6 6 6 8 6 4 3 4 5 5 6 7 7 6 6 5 5 4 4 4 3 3 3 3 4 4 4 4 5 6 6 5 5 4 5 4 4 4 3 4 4 5 3 4 7
4 4 4 4 5 4 4 4 5 5 5 4 3 3 5 7 6 5 5 8 11 10 8 6 5 4 5 5 4 4 4 4 7 9 9 11 11 10 9 9 9 8 8 8 3 2 3 4 4 5 5 5 6 6 6 6 6 6 5 4 4 4 4 4 4 5 4 5 5 5 5 5 6 5 4 5 5 3 3 4 4 4 5 5 7
3 3 3 4 5 4 4 4 5 4 4 4 5 4 3 3 7 11 11 10 11 12 13 14 14 13 9 6 6 6 6 8 10 10 11 11 11 10 11 10 10 10 8 2 1 2 3 4 4 4 4 4 5 6 6 6 6 6 7 6 5 5 5 5 5 4 5 5 5 5 5 5 6 6 6 6 6 5 4 4 5 5 6 6 8
4 4 5 5 5 6 5 5 5 4 4 4 4 4 4 3 1 6 10 11 12 14 15 16 16 15 14 11 8 5 10 12 14 14 14 13 12 12 11 10 9 9 6 2 0 3 3 4 4 5 5 5 5 5 6 6 6 7 7 7 7 6 6 7 6 6 7 6 6 6 6 6 6 6 6 6 6 6 5 5 5 6 7 7 8
6 5 5 6 6 6 6 6 6 5 6 5 5 4 4 4 5 6 6 7 9 12 14 15 16 16 15 15 17 14 14 15 18 17 16 16 16 15 13 11 9 12 7 5 5 5 5 5 5 5 6 6 6 6 6 6 6 7 6 7 7 6 6 6 6 6 6 6 6 6 6 6 6 6 6 6 6 7 6 6 6 6 7 8 8
7 6 6 6 6 5 6 5 5 5 5 5 5 5 5 5 5 5 6 6 5 6 9 13 15 15 14 16 18 17 17 17 17 16 15 16 16 16 12 6 8 12 10 6 5 5 6 6 6 5 5 6 6 6 6 6 6 7 7 6 6 7 7 7 6 7 6 6 6 7 6 6 6 7 7 7 7 7 7 6 6 6 7 8 8
5 6 9 7 4 4 4 4 4 4 4 4 4 4 4 5 5 5 6 6 5 5 6 7 10 14 12 11 15 16 16 17 16 16 16 16 16 16 9 6 8 8 8 7 6 6 6 6 7 7 6 7 6 7 7 7 7 7 7 7 7 7 7 7 7 7 7 7 7 7 7 8 7 7 7 8 7 7 7 7 7 7 8 8 8
5 4 4 5 5 4 4 4 5 5 5 5 4 4 4 4 4 4 4 4 4 6 6 7 6 8 13 12 16 16 17 16 14 14 14 15 15 15 9 8 7 7 7 7 8 8 7 7 7 7 7 6 7 7 7 8 8 8 7 7 8 7 7 7 6 7 7 7 8 8 8 7 7 7 7 8 9 9 8 8 8 8 8 9 8
4 4 4 4 4 3 4 4 4 5 5 5 5 4 4 4 4 3 4 5 6 5 5 6 7 7 8 7 13 14 17 14 13 12 13 13 14 8 6 6 6 6 6 6 6 6 6 5 5 6 6 7 7 7 7 8 8 8 8 9 8 9 9 9 10 10 9 8 7 7 7 8 7 7 8 10 9 8 8 8 8 9 9 10 9
4 3 3 4 4 3 4 4 4 6 5 4 4 4 4 4 5 5 6 6 6 6 6 7 7 7 8 8 12 10 11 11 12 9 9 10 9 7 7 7 6 6 5 5 5 5 5 5 5 6 7 7 7 7 6 6 6 7 7 6 7 6 11 10 10 9 9 8 8 8 7 8 7 8 8 9 9 9 9 8 9 9 9 10 9
3 5 7 8 6 4 3 2 2 3 3 4 4 5 6 6 6 6 6 5 5 5 6 5 5 6 6 7 7 9 9 7 7 8 8 8 8 7 6 7 7 8 8 9 9 9 8 9 8 7 7 8 9 9 9 9 8 8 7 8 8 8 8 7 6 7 7 8 8 8 8 8 8 8 8 9 9 9 10 10 9 9 10 10 9
4 3 4 8 4 4 4 4 4 5 6 5 5 6 5 6 6 6 5 5 5 5 5 5 6 7 7 8 8 8 7 7 6 7 6 7 7 7 8 9 8 8 8 8 7 8 8 8 8 9 9 9 9 9 9 10 9 10 10 9 9 9 8 8 9 9 9 8 8 8 8 9 8 8 9 9 9 9 10 10 9 9 9 10 10
3 3 4 5 6 4 4 5 5 6 5 6 6 6 6 6 5 5 5 5 5 4 5 6 6 6 6 10 14 12 6 6 7 6 6 7 7 7 8 8 9 10 10 10 10 10 10 10 10 9 9 8 9 8 9 8 9 8 9 9 9 9 9 9 9 8 8 9 8 7 7 8 9 10 11 10 10 11 10 10 10 9 9 9 10
3 3 3 3 4 3 4 5 5 6 5 5 4 4 5 5 5 4 5 5 5 5 5 4 4 6 9 15 14 13 7 6 6 6 7 8 8 8 9 9 9 9 9 9 9 10 9 9 9 9 9 9 10 10 11 11 11 11 11 11 11 10 11 11 11 11 11 9 9 8 7 7 8 10 11 11 10 9 10 9 10 10 9 9 8
3 2 2 3 2 2 2 3 3 2 4 4 4 5 5 4 4 5 4 4 3 4 5 6 6 6 7 12 12 12 7 7 7 8 8 8 7 8 8 7 7 8 7 7 8 8 8 7 7 8 9 10 11 11 11 10 10 10 10 10 10 11 11 10 10 10 10 11 11 11 11 10 10 8 8 9 10 10 10 11 10 10 9 9 9
3 3 3 3 3 3 3 3 3 4 3 5 5 4 4 4 4 4 4 5 5 6 5 5 5 6 6 8 8 7 6 7 7 7 8 8 8 8 8 9 9 9 9 9 9 9 9 8 9 9 10 9 10 11 10 10 11 11 11 13 13 13 13 12 12 12 13 13 13 13 12 11 11 12 11 12 11 12 10 10 11 11 11 12 12
4 4 3 3 3 3 3 3 4 5 6 5 4 4 6 5 5 5 5 5 5 6 5 5 6 6 6 7 6 7 6 7 8 7 7 8 8 8 8 8 9 10 10 10 9 10 9 9 9 10 11 10 10 10 10 10 10 10 10 11 10 11 11 11 11 11 12 13 13 13 13 12 11 9 8 9 9 9 11 11 12 12 13 13 13
3 4 3 3 4 4 4 4 5 5 5 5 5 5 5 5 5 5 5 5 5 5 5 6 6 6 6 6 6 7 6 6 6 6 7 6 6 6 6 7 7 7 6 7 7 7 7 7 7 7 8 7 8 8 8 9 9 9 9 8 9 9 10 10 10 12 12 12 13 13 13 13 13 12 14 13 12 13 13 13 12 11 12 13 13
3 4 4 4 4 4 5 5 5 6 5 5 5 4 4 5 5 5 5 6 5 5 5 5 5 5 5 5 5 5 6 5 5 5 5 5 5 6 6 6 6 5 5 5 5 5 6 6 6 7 7 7 7 8 8 7 8 8 8 8 8 10 8 9 11 11 11 11 12 12 13 11 12 12 13 13 12 13 12 10 11 11 11 12 12
3 4 4 5 4 5 5 5 5 6 5 5 3 4 4 4 4 4 4 5 4 4 4 4 4 5 5 5 4 4 4 4 5 5 5 5 5 6 6 6 6 6 6 6 5 5 5 6 6 6 7 7 8 7 7 7 7 7 7 7 7 8 14 18 11 11 10 10 11 12 13 14 13 12 12 13 13 12 13 12 12 10 10 10 9
4 4 4 4 4 4 4 4 5 4 3 3 3 4 4 3 3 3 2 2 3 3 3 3 3 3 3 4 3 3 4 4 3 3 4 4 5 5 6 6 7 7 6 6 6 6 6 6 5 5 6 6 6 7 7 7 8 7 8 7 11 23 24 23 16 12 17 13 11 11 12 13 13 13 14 13 14 13 13 14 12 11 9 8 9
4 4 3 3 3 3 4 4 4 4 3 3 3 2 2 2 1 1 1 1 1 1 2 2 3 3 3 3 4 4 3 3 3 4 4 4 5 5 5 5 6 6 6 5 6 6 6 5 5 5 5 6 6 6 7 7 8 9 8 11 22 24 24 25 24 24 18 11 12 11 12 13 13 12 11 12 12 13 14 14 14 13 12 12 12
4 3 3 3 3 3 3 3 4 3 2 2 2 1 1 1 1 1 1 1 1 1 2 3 3 4 4 4 4 4 4 3 4 3 5 4 5 5 5 5 6 5 5 5 5 5 5 5 5 6 6 7 7 7 7 8 8 9 16 23 23 24 25 23 17 20 26 20 13 12 12 12 13 12 11 10 11 12 13 14 14 12 11 11 11
Wind_Direction
253 251 252 247 246 243 241 235 234 230 231 228 229 231 232 230 230 229 229 226 220 222 219 218 216 215 212 213 214 214 213 213 211 212 213 218 220 224 224 219 221 225 228 231 224 224 226 228 228 229 224 225 220 220 221 220 214 217 218 220 224 221 220 230 241 255 258 249 255 258 242 194 242 211 232 229 236 221 219 229 220 213 234 243 247
253 255 250 248 247 246 242 238 235 232 232 230 230 233 231 229 228 226 226 228 213 222 217 218 217 215 214 215 214 215 215 214 211 209 212 215 222 222 224 221 223 226 225 233 226 225 226 227 229 228 223 224 221 220 222 222 219 217 217 216 222 221 216 227 238 247 257 251 260 223 251 179 245 188 218 215 236 226 221 229 217 205 221 243 245
273 265 262 255 250 247 243 238 236 236 234 234 232 233 232 232 225 223 227 227 217 219 217 217 217 214 217 217 215 215 215 215 212 210 212 214 219 221 221 219 223 223 225 230 227 225 225 225 229 226 224 225 221 223 221 223 219 221 221 215 222 223 221 221 232 242 248 253 246 256 229 226 225 237 214 217 227 214 219 228 228 213 214 226 242
278 274 270 263 261 262 251 245 242 240 238 239 239 238 235 237 226 226 228 223 223 221 217 218 216 216 217 218 217 218 216 216 214 213 213 214 220 222 220 221 222 224 226 229 227 224 225 225 227 223 224 226 223 222 222 224 222 225 224 219 222 226 224 225 225 238 242 254 232 242 228 232 239 242 225 223 223 222 219 228 231 229 228 219 224
291 282 274 274 270 260 257 249 243 244 242 244 245 247 249 250 239 231 231 229 229 219 219 215 219 216 218 217 218 218 217 214 215 215 216 217 221 222 222 222 223 225 226 227 226 225 226 226 226 222 223 229 227 222 220 223 225 224 224 221 223 226 229 226 230 230 240 244 250 236 237 230 240 238 205 226 236 237 244 236 227 224 236 240 227
290 291 286 280 276 269 267 268 260 258 259 261 262 266 259 249 240 243 232 235 230 224 219 213 216 219 219 220 219 221 218 217 216 216 215 217 220 222 223 224 225 224 226 227 226 225 226 226 225 222 223 227 228 224 223 227 224 224 224 224 223 226 229 229 229 232 236 243 242 251 229 244 247 233 208 211 218 234 248 249 254 241 237 256 240
272 276 277 263 264 261 262 255 260 272 272 274 285 285 274 266 257 248 236 234 230 225 222 219 217 218 221 218 221 220 219 217 217 218 218 218 218 220 223 226 227 225 225 224 225 225 226 226 225 221 225 226 229 226 223 225 222 226 222 222 223 226 230 230 227 231 233 241 240 236 242 237 238 253 225 209 216 217 227 244 246 235 227 217 245
261 262 273 274 257 253 243 240 252 256 263 271 275 275 276 274 262 262 251 242 238 234 228 223 224 216 224 219 224 218 220 218 217 217 218 216 216 220 220 224 226 226 225 224 223 224 224 225 224 223 224 226 228 229 221 224 221 228 222 221 223 225 230 229 229 231 235 237 239 236 228 236 232 244 105 141 223 272 238 219 237 224 230 221 218
248 228 244 258 259 256 253 251 244 254 260 266 267 261 257 257 262 259 252 251 248 244 241 233 228 228 229 227 227 220 220 222 215 211 212 215 215 219 219 221 222 224 225 225 223 223 224 224 224 224 222 226 226 227 223 219 220 226 224 218 223 224 230 228 230 232 239 243 250 244 251 245 236 236 233 214 213 233 212 202 233 229 242 248 241
242 226 231 252 267 271 282 289 288 277 260 251 256 270 278 282 283 276 269 262 260 256 251 244 235 230 229 229 228 225 228 225 222 214 210 211 213 219 221 222 222 224 226 226 226 223 223 223 225 221 221 220 224 227 229 227 224 224 224 215 221 223 227 229 230 229 234 235 235 231 234 235 226 216 229 228 226 231 198 193 231 227 231 250 264
255 235 232 235 246 288 313 308 329 301 288 274 249 229 234 261 279 277 274 273 269 262 251 249 244 239 232 229 226 228 231 228 223 220 218 214 215 219 220 223 220 223 223 224 225 222 223 224 225 221 221 223 223 225 225 227 228 230 234 230 220 215 222 225 226 222 225 231 232 228 232 238 230 217 218 230 223 210 213 206 232 227 226 244 259
280 274 276 275 247 218 217 260 255 253 255 255 251 229 204 200 219 242 265 274 270 283 274 256 254 247 243 239 236 232 233 228 224 225 222 221 217 222 224 224 222 222 222 222 225 222 224 224 225 224 222 219 220 224 227 227 227 229 231 235 238 237 234 224 229 234 233 238 239 234 235 238 240 218 226 214 233 225 222 216 218 219 233 236 245
293 305 307 317 323 282 259 235 242 247 230 229 233 233 210 195 204 205 228 231 268 273 260 265 262 262 253 251 247 244 245 242 242 240 238 233 228 224 233 229 225 224 221 221 221 222 222 225 227 225 227 218 220 226 226 228 230 230 231 234 237 237 241 243 243 243 237 239 244 248 233 243 249 231 202 205 200 224 218 229 227 227 230 235 241
289 302 315 335 341 334 326 258 258 256 264 265 257 228 201 216 212 203 205 212 218 242 256 258 265 262 247 243 250 255 253 257 247 241 237 235 232 224 230 229 228 226 222 220 220 222 221 224 228 229 225 216 214 219 225 230 232 229 233 234 235 238 238 238 240 244 242 243 245 247 236 203 243 233 214 197 200 221 216 235 217 232 233 234 236
301 301 295 305 316 338 349 356 331 306 297 302 307 300 291 274 255 234 191 197 196 220 237 244 247 243 240 230 231 236 243 251 240 238 233 233 237 231 238 238 238 235 229 221 222 221 223 227 231 235 231 225 220 215 223 227 228 228 223 221 222 228 230 234 237 237 240 239 242 248 250 236 241 234 215 202 214 223 220 234 226 231 253 282 303
337 318 317 322 327 327 343 357 5 7 13 25 18 327 324 322 311 334 346 308 280 259 281 253 261 261 267 253 232 242 21 41 43 28 343 265 242 223 229 240 245 257 257 268 251 235 220 223 225 225 224 227 238 229 229 237 239 238 242 247 243 237 237 235 235 236 237 242 244 248 249 248 252 252 235 218 217 228 238 249 243 233 254 256 261
348 325 313 313 309 304 306 51 45 39 48 67 53 41 341 320 330 358 18 16 25 23 13 19 17 23 29 23 35 63 57 26 30 27 22 18 30 69 161 183 200 214 225 205 181 156 129 115 116 123 132 136 74 50 25 30 248 244 244 244 246 242 241 239 240 242 243 246 251 254 258 261 264 271 274 268 262 241 254 259 245 194 236 256 261
345 335 326 325 318 311 306 51 87 82 78 70 50 20 29 322 358 12 51 24 37 35 23 33 34 40 40 41 15 11 1 8 14 15 22 17 10 359 16 91 230 227 268 273 235 64 63 59 60 66 45 342 27 357 339 347 282 253 251 256 266 264 265 280 292 275 256 253 253 254 254 255 257 257 255 250 245 226 210 244 218 164 237 243 260
342 336 329 328 323 323 323 4 66 89 79 70 61 63 52 40 360 18 43 67 61 30 31 38 25 23 17 12 10 18 357 0 2 7 15 9 5 13 29 32 330 303 338 327 1 3 346 352 357 339 312 277 273 263 253 229 257 253 265 269 265 261 258 239 256 274 283 290 282 282 280 268 262 258 257 253 248 240 228 240 222 207 242 249 248
328 325 323 328 344 356 347 1 26 53 70 66 63 56 64 65 56 71 51 67 69 48 38 45 48 26 2 355 359 357 359 347 347 356 5 9 1 7 32 16 311 314 342 341 322 323 322 311 318 306 292 293 311 330 329 306 266 251 236 250 257 266 275 331 279 272 280 270 278 272 270 270 266 256 242 241 246 234 236 236 235 227 238 250 244
342 334 335 345 6 25 25 23 22 24 36 78 90 72 62 80 90 95 105 101 99 80 73 70 73 60 31 12 26 18 7 346 344 353 354 1 4 3 351 356 333 317 309 303 287 291 300 294 297 300 305 319 331 328 323 316 314 308 275 258 248 285 333 300 293 296 287 284 280 276 268 261 252 246 240 230 225 226 227 226 223 224 230 242 246
352 1 358 4 7 16 24 25 42 40 28 47 66 64 51 61 63 81 98 105 94 85 84 89 90 79 68 56 53 47 47 41 17 15 10 352 346 309 273 270 291 308 268 250 260 266 267 267 266 270 278 292 294 291 294 305 316 313 283 277 292 301 290 261 266 259 262 268 265 267 264 258 261 246 239 232 229 231 232 230 226 226 228 230 233
5 20 20 18 18 19 20 22 20 27 43 41 56 60 50 56 52 58 67 70 70 68 62 63 69 64 57 45 39 37 30 32 30 26 19 18 8 3 339 323 319 321 284 277 273 277 282 284 286 291 288 289 290 297 296 292 291 275 276 278 280 283 284 267 258 258 260 262 260 262 257 249 254 250 236 238 228 225 232 231 234 233 236 240 241
352 17 30 25 22 22 18 19 22 25 25 36 60 62 53 54 53 44 41 51 59 60 49 50 56 55 51 41 36 34 30 32 23 22 18 16 19 19 12 2 340 310 306 296 310 312 312 309 308 305 294 291 290 289 288 284 272 270 276 280 281 281 274 268 254 250 248 247 249 252 251 237 240 245 234 230 232 224 228 232 239 239 241 248 249
7 14 16 17 24 17 21 24 22 23 23 32 54 57 60 59 63 38 46 48 49 58 48 47 56 56 53 46 37 35 35 37 33 22 16 7 5 8 13 9 358 350 329 316 315 310 308 309 313 314 312 305 297 293 292 287 279 275 273 272 273 267 259 251 256 253 251 252 255 256 252 236 232 239 242 241 250 269 263 250 239 246 244 246 249
37 31 20 16 10 8 26 29 27 21 26 32 40 36 51 56 67 50 51 49 50 58 55 58 60 56 55 36 29 27 32 43 33 27 25 11 5 357 356 357 344 322 298 283 291 297 299 298 297 295 294 290 288 275 267 267 265 267 273 277 274 262 259 262 264 257 264 271 268 267 269 269 259 252 247 248 245 244 240 247 240 246 233 247 258
49 40 36 23 10 12 29 28 27 28 26 26 35 35 29 36 52 55 49 47 49 50 48 53 57 59 60 49 28 34 50 44 33 24 25 20 12 1 355 348 341 336 323 312 302 296 296 292 281 283 279 278 273 268 268 268 269 263 258 259 260 262 261 261 264 272 277 284 285 286 289 280 278 281 270 254 251 246 224 243 244 249 233 248 248
37 39 34 34 35 22 42 37 43 45 34 29 32 30 28 24 50 55 47 35 51 51 55 52 49 46 48 49 53 59 46 41 26 15 9 14 9 10 359 346 341 329 325 318 317 313 315 312 310 301 287 280 264 262 268 264 262 276 269 260 262 260 264 267 273 271 272 274 279 283 286 284 285 275 276 267 261 263 238 233 237 249 231 229 246
18 14 3 354 2 6 33 44 47 52 49 45 44 42 32 16 33 66 58 43 36 52 64 56 44 32 39 33 26 26 25 21 13 355 3 9 10 360 358 358 344 337 320 314 316 316 324 329 336 343 355 348 347 345 343 339 331 316 306 305 288 280 280 283 286 285 284 293 289 292 293 293 287 281 275 276 267 263 244 245 245 244 253 219 246
59 36 14 2 352 355 9 26 34 36 35 32 42 51 45 52 44 42 35 36 53 59 65 59 41 22 35 35 39 37 17 341 336 360 11 10 4 357 345 339 335 319 308 314 310 307 329 342 339 341 336 342 335 332 332 332 326 326 323 312 310 309 297 285 276 279 282 276 276 284 286 289 290 291 285 277 276 257 236 226 246 227 241 243 257
38 23 11 16 357 344 358 13 21 37 39 29 17 19 24 52 61 46 35 33 44 48 46 42 38 36 32 14 4 14 5 8 15 16 10 5 357 352 345 338 331 325 317 330 28 356 340 349 340 337 327 322 320 322 324 325 325 323 321 324 314 309 308 305 298 291 289 289 285 279 281 286 287 290 287 281 276 265 243 232 241 242 244 252 256
44 23 11 1 355 357 356 4 10 18 25 28 22 13 7 354 20 65 46 33 41 43 38 35 30 23 19 19 21 12 20 17 17 11 5 358 356 354 351 345 341 351 5 68 74 1 359 351 344 345 343 341 336 331 330 328 328 328 326 328 329 329 325 320 316 313 305 300 296 292 288 285 283 281 275 272 267 263 251 243 226 235 241 242 246
27 28 21 7 357 359 359 0 3 7 11 11 13 13 13 10 358 344 18 43 53 51 43 38 28 18 13 23 29 25 19 14 10 6 2 2 2 2 358 355 359 18 23 35 25 14 8 3 359 351 349 343 339 338 333 330 327 325 323 319 319 321 317 308 303 297 292 291 291 289 288 286 287 283 278 274 270 270 257 247 240 234 238 245 249
17 23 20 12 7 359 358 357 358 2 7 9 10 10 13 11 358 358 352 355 22 47 50 38 27 19 16 22 20 15 14 12 7 6 7 8 5 2 359 1 24 29 31 27 19 14 7 360 358 354 349 342 336 334 333 332 331 327 323 320 320 320 318 316 317 313 310 306 302 297 294 288 287 288 286 279 270 268 265 258 247 241 241 239 248
15 18 20 15 5 358 352 355 357 358 6 8 10 9 11 5 12 13 8 5 1 5 2 16 20 20 17 17 13 10 11 7 7 7 9 7 7 7 5 20 19 13 18 20 18 8 6 358 353 351 347 341 336 338 331 329 323 325 324 324 324 322 322 323 317 315 313 312 307 304 301 296 291 283 284 287 284 278 272 268 257 243 248 249 245
13 16 7 3 354 353 360 1 359 2 3 5 10 10 9 12 20 20 16 9 10 7 10 7 6 12 15 15 12 7 6 4 5 6 9 9 11 12 17 17 14 12 9 7 8 1 0 357 354 348 342 340 343 337 333 330 331 328 328 323 319 318 314 311 312 313 308 301 295 293 291 288 284 285 282 275 274 274 274 271 268 259 248 250 249
7 9 2 349 335 341 10 7 357 1 2 11 11 6 7 16 20 20 23 28 22 15 8 355 2 4 13 16 10 4 3 358 3 6 12 13 15 16 20 14 13 6 11 6 359 354 350 344 340 337 337 340 333 328 327 324 324 320 321 322 323 323 325 327 323 317 309 305 301 298 296 293 291 287 287 287 281 275 272 273 270 266 260 255 251
354 350 338 327 315 352 19 4 358 12 11 19 5 5 12 17 19 22 27 20 13 11 8 14 11 6 0 2 6 5 355 355 2 7 12 13 13 15 14 11 8 2 358 351 348 340 336 333 341 346 331 320 313 311 308 306 308 309 309 307 309 308 308 306 304 302 302 299 299 296 291 291 289 287 281 280 282 282 276 271 272 273 268 256 247
342 348 358 10 19 19 359 346 8 17 16 15 7 16 18 15 21 24 16 4 5 11 12 7 4 1 5 14 4 358 355 358 7 8 5 10 12 9 358 2 3 5 5 4 358 356 350 346 337 331 331 341 343 340 336 331 330 323 320 318 311 305 300 301 305 308 304 301 302 302 299 293 285 277 273 276 279 281 281 279 272 268 267 267 255
350 334 6 23 27 13 355 8 25 27 19 10 15 19 6 23 22 11 358 356 3 11 352 358 12 14 15 9 3 355 0 356 3 4 359 6 356 358 13 13 7 360 358 350 353 344 339 335 350 357 353 347 338 333 330 327 325 323 321 314 309 307 309 313 311 306 299 295 293 294 291 291 289 289 282 275 272 269 271 273 275 273 272 270 267
346 354 17 21 23 10 11 22 25 27 15 18 21 13 14 17 10 4 1 8 5 12 10 22 17 11 7 10 5 3 358 357 7 349 360 2 358 10 11 6 7 6 4 358 355 351 351 351 346 343 339 337 330 324 318 317 318 316 317 320 325 325 324 317 308 303 302 300 296 299 311 318 319 318 313 309 306 297 286 276 270 265 265 266 265
354 3 22 13 12 11 25 28 25 17 23 23 11 4 18 24 19 6 7 6 11 18 13 355 1 22 10 11 7 13 13 360 357 3 8 12 14 13 11 11 7 2 356 351 349 349 349 345 340 336 331 336 338 338 339 342 340 338 338 334 330 327 324 322 321 321 319 314 311 305 301 307 308 302 297 296 292 289 289 285 279 271 265 263 262
348 2 358 8 16 15 25 27 10 22 28 26 21 26 29 19 355 356 349 355 348 11 5 19 19 12 11 17 17 19 16 9 17 15 16 13 12 9 5 4 360 353 344 344 348 347 338 328 329 337 344 345 346 343 339 335 334 328 325 324 324 325 321 321 322 324 324 321 317 315 311 304 300 293 291 288 289 287 283 285 286 286 284 278 278
341 341 338 1 5 17 20 22 22 27 24 30 31 15 13 12 3 355 8 16 26 30 23 16 9 12 18 13 14 21 15 14 16 17 15 9 6 360 2 360 353 350 352 354 348 344 341 347 348 347 346 343 344 341 339 336 334 337 338 337 332 329 327 328 329 328 323 319 316 314 314 313 312 311 307 304 304 304 302 299 295 286 280 277 272
351 341 347 351 6 10 12 20 24 30 33 33 29 28 35 33 26 26 31 24 28 33 19 17 15 13 12 9 10 16 14 16 11 11 9 4 4 2 360 352 350 350 351 349 349 350 350 349 348 345 342 340 339 339 338 337 337 335 333 329 327 325 325 324 322 321 322 320 318 315 311 308 303 296 289 293 293 295 293 293 293 297 296 288 272
345 327 327 346 354 11 19 26 40 44 39 38 34 29 31 29 24 24 28 27 27 30 15 18 13 11 10 2 3 9 360 13 358 2 2 358 1 354 351 343 341 343 341 336 337 338 337 341 337 331 328 322 324 327 326 327 326 325 323 322 322 319 318 317 320 321 317 314 309 307 306 304 303 301 300 301 298 292 287 285 284 284 285 289 292
358 354 351 359 22 22 26 33 44 42 34 29 30 23 32 26 23 21 20 30 29 25 22 19 11 355 355 352 355 358 354 359 352 353 350 351 348 343 334 331 327 326 321 318 320 322 328 329 325 323 319 321 322 321 322 319 321 320 324 318 312 312 307 313 317 312 307 305 302 300 300 297 294 293 292 289 287 285 283 276 278 276 277 278 282
22 18 23 31 31 32 32 35 37 39 31 24 25 28 42 35 15 18 20 22 18 21 23 17 4 347 350 340 342 350 340 352 346 343 341 335 337 333 330 324 324 321 313 314 312 317 319 317 316 317 319 321 323 322 320 318 314 312 306 306 301 305 324 327 317 312 305 306 304 303 298 295 290 287 285 284 282 281 280 277 276 270 269 273 270
41 39 41 42 40 36 35 33 42 35 30 37 29 32 51 31 7 14 21 36 12 15 28 6 341 327 325 321 337 334 334 334 324 324 330 328 327 323 319 316 316 308 310 303 305 306 304 302 304 308 310 313 312 317 319 322 323 317 316 308 325 333 332 329 326 318 318 311 299 294 292 289 289 286 285 282 281 280 280 282 280 276 271 267 269
51 45 45 44 43 30 34 40 40 31 38 46 38 41 48 23 357 1 18 12 358 2 39 352 333 312 317 315 329 322 319 310 317 315 319 315 313 301 301 295 292 289 288 291 295 295 292 295 299 304 313 317 324 326 330 330 328 324 319 334 338 335 333 332 329 326 324 316 312 301 297 290 286 279 279 277 276 275 276 275 275 272 269 265 263
49 56 44 50 42 29 25 36 28 18 19 45 39 9 9 331 303 320 336 331 321 354 8 332 321 314 315 311 320 312 301 304 307 305 301 303 296 298 292 291 289 285 282 284 286 290 299 312 320 325 328 332 333 334 335 334 322 326 342 343 341 339 337 336 331 327 325 321 312 307 297 293 286 283 279 277 275 276 272 276 276 277 276 278 276